| time (UTC) | temp F | wind direction | speed knots | gust knots | rain 1hr in | rain 24hr in | rain mn in | humidity % | barometer mb |
| 20260906224233 | 140 | 137 | 0.0 | 0.0 | 0.00 | 0.00 | 0.00 | 1009.3 | |
| 20260906223730 | 140 | 93 | 3.5 | 7.0 | 0.00 | 0.00 | 0.00 | 1009.6 | |
| 20260906223225 | 140 | 127 | 0.0 | 0.0 | 0.00 | 0.00 | 0.00 | 1009.3 | |
| 20260906222723 | 140 | 51 | 7.8 | 11.3 | 0.00 | 0.00 | 0.00 | 1009.6 | |
| 20260906222222 | 140 | 72 | 1.7 | 2.6 | 0.00 | 0.00 | 0.00 | 1009.3 | |
| 20260906221720 | 140 | 193 | 0.0 | 0.0 | 0.00 | 0.00 | 0.00 | 1009.5 | |
| 20260906221215 | 140 | 84 | 0.0 | 0.0 | 0.00 | 0.00 | 0.00 | 1009.7 | |
| 20260906220709 | 140 | 64 | 0.9 | 4.3 | 0.00 | 0.00 | 0.00 | 1009.8 | |
| 20260906220204 | 140 | 103 | 6.1 | 7.0 | 0.00 | 0.00 | 0.00 | 1009.8 | |
| 20260906215704 | 140 | 94 | 4.3 | 7.0 | 0.00 | 0.00 | 0.00 | 1009.6 | |
| 20260906215203 | 140 | 82 | 0.0 | 0.0 | 0.00 | 0.00 | 0.00 | 1010.1 | |
| 20260906214701 | 140 | 67 | 0.0 | 1.7 | 0.00 | 0.00 | 0.00 | 1009.9 | |
| 20260906214156 | 140 | 90 | 4.3 | 5.2 | 0.00 | 0.00 | 0.00 | 1009.8 | |
| 20260906213655 | 140 | 102 | 9.6 | 11.3 | 0.00 | 0.00 | 0.00 | 1010.1 | |
| 20260906213150 | 140 | 37 | 0.0 | 0.0 | 0.00 | 0.00 | 0.00 | 1009.9 | |
| 20260906212648 | 140 | 76 | 4.3 | 7.8 | 0.00 | 0.00 | 0.00 | 1009.9 | |
| 20260906212143 | 140 | 109 | 0.0 | 0.0 | 0.00 | 0.00 | 0.00 | 1010.1 | |
| 20260906211643 | 140 | 78 | 0.0 | 0.0 | 0.00 | 0.00 | 0.00 | 1010.3 | |
| 20260906211138 | 140 | 71 | 2.6 | 6.1 | 0.00 | 0.00 | 0.00 | 1010.4 | |
| 20260906210634 | 140 | 49 | 0.0 | 0.9 | 0.00 | 0.00 | 0.00 | 1010.4 | |
| 20260906210128 | 140 | 92 | 0.0 | 0.0 | 0.00 | 0.00 | 0.00 | 1010.4 | |
| 20260906205623 | 140 | 31 | 5.2 | 8.7 | 0.00 | 0.00 | 0.00 | 1010.2 | |
| 20260906205115 | 140 | 57 | 0.9 | 4.3 | 0.00 | 0.00 | 0.00 | 1010.5 | |
| 20260906204614 | 140 | 45 | 7.0 | 9.6 | 0.00 | 0.00 | 0.00 | 1010.4 | |
| 20260906204109 | 140 | 56 | 4.3 | 6.1 | 0.00 | 0.00 | 0.00 | 1010.3 | |
| 20260906203608 | 140 | 47 | 5.2 | 7.0 | 0.00 | 0.00 | 0.00 | 1010.5 | |
| 20260906203103 | 140 | 58 | 0.9 | 2.6 | 0.00 | 0.00 | 0.00 | 1010.5 | |
| 20260906202559 | 140 | 89 | 0.0 | 0.0 | 0.00 | 0.00 | 0.00 | 1010.6 | |
| 20260906202053 | 140 | 104 | 7.0 | 7.8 | 0.00 | 0.00 | 0.00 | 1010.6 | |
| 20260906201548 | 140 | 218 | 2.6 | 4.3 | 0.00 | 0.00 | 0.00 | 1010.8 | |
| 20260906201048 | 140 | 106 | 7.0 | 8.7 | 0.00 | 0.00 | 0.00 | 1010.7 | |
| 20260906200544 | 140 | 81 | 0.0 | 0.0 | 0.00 | 0.00 | 0.00 | 1010.8 | |
| 20260906200040 | 140 | 64 | 5.2 | 7.8 | 0.00 | 0.00 | 0.00 | 1011.1 | |
| 20260906195535 | 140 | 100 | 8.7 | 11.3 | 0.00 | 0.00 | 0.00 | 1011.1 | |
| 20260906195031 | 140 | 357 | 0.0 | 1.7 | 0.00 | 0.00 | 0.00 | 1011.3 | |
| 20260906194527 | 140 | 101 | 0.9 | 2.6 | 0.00 | 0.00 | 0.00 | 1011.1 | |
| 20260906194022 | 140 | 163 | 3.5 | 7.8 | 0.00 | 0.00 | 0.00 | 1011.1 | |
| 20260906193522 | 140 | 140 | 3.5 | 8.7 | 0.00 | 0.00 | 0.00 | 1011.2 | |
| 20260906193018 | 140 | 67 | 1.7 | 4.3 | 0.00 | 0.00 | 0.00 | 1011.3 | |
| 20260906192513 | 140 | 31 | 0.0 | 1.7 | 0.00 | 0.00 | 0.00 | 1011.4 | |
| 20260906192012 | 140 | 65 | 3.5 | 6.1 | 0.00 | 0.00 | 0.00 | 1011.9 | |
| 20260906191507 | 140 | 60 | 7.8 | 9.6 | 0.00 | 0.00 | 0.00 | 1011.6 | |
| 20260906191006 | 140 | 121 | 4.3 | 7.8 | 0.00 | 0.00 | 0.00 | 1011.5 | |
| 20260906190505 | 140 | 85 | 2.6 | 6.1 | 0.00 | 0.00 | 0.00 | 1011.5 | |
| 20260906190000 | 140 | 102 | 0.0 | 0.0 | 0.00 | 0.00 | 0.00 | 1011.6 | |
| 20260906185459 | 140 | 90 | 4.3 | 6.1 | 0.00 | 0.00 | 0.00 | 1011.9 | |
| 20260906184958 | 140 | 101 | 0.9 | 2.6 | 0.00 | 0.00 | 0.00 | 1011.6 | |
| 20260906184454 | 140 | 81 | 4.3 | 7.0 | 0.00 | 0.00 | 0.00 | 1011.8 | |
| 20260906183949 | 140 | 109 | 7.0 | 7.8 | 0.00 | 0.00 | 0.00 | 1011.8 | |
| 20260906183444 | 140 | 96 | 11.3 | 13.0 | 0.00 | 0.00 | 0.00 | 1011.9 | |
| 20260906182940 | 140 | 347 | 7.8 | 11.3 | 0.00 | 0.00 | 0.00 | 1012.0 | |
| 20260906182436 | 140 | 76 | 9.6 | 12.2 | 0.00 | 0.00 | 0.00 | 1011.9 | |
| 20260906181932 | 140 | 56 | 2.6 | 6.1 | 0.00 | 0.00 | 0.00 | 1011.9 | |
| 20260906181427 | 140 | 103 | 9.6 | 11.3 | 0.00 | 0.00 | 0.00 | 1012.2 | |
| 20260906180922 | 140 | 150 | 0.0 | 0.0 | 0.00 | 0.00 | 0.00 | 1012.6 | |
| 20260906180417 | 140 | 88 | 7.8 | 9.6 | 0.00 | 0.00 | 0.00 | 1012.4 | |
| 20260906175915 | 140 | 82 | 8.7 | 9.6 | 0.00 | 0.00 | 0.00 | 1012.4 | |
| 20260906175410 | 140 | 99 | 0.9 | 5.2 | 0.00 | 0.00 | 0.00 | 1012.4 | |
| 20260906174909 | 140 | 140 | 4.3 | 5.2 | 0.00 | 0.00 | 0.00 | 1012.5 | |
| 20260906174409 | 140 | 111 | 4.3 | 6.1 | 0.00 | 0.00 | 0.00 | 1012.7 | |
| 20260906173903 | 140 | 38 | 0.9 | 4.3 | 0.00 | 0.00 | 0.00 | 1012.8 | |
| 20260906173359 | 140 | 84 | 1.7 | 5.2 | 0.00 | 0.00 | 0.00 | 1012.9 | |
| 20260906172858 | 140 | 101 | 5.2 | 6.1 | 0.00 | 0.00 | 0.00 | 1012.8 | |
| 20260906172355 | 140 | 73 | 2.6 | 5.2 | 0.00 | 0.00 | 0.00 | 1013.1 | |
| 20260906171854 | 140 | 95 | 0.0 | 0.0 | 0.00 | 0.00 | 0.00 | 1013.0 | |
| 20260906171344 | 140 | 94 | 1.7 | 6.1 | 0.00 | 0.00 | 0.00 | 1012.9 | |
| 20260906170840 | 140 | 68 | 1.7 | 5.2 | 0.00 | 0.00 | 0.00 | 1013.3 | |
| 20260906170335 | 140 | 119 | 4.3 | 7.0 | 0.00 | 0.00 | 0.00 | 1013.4 | |
| 20260906165832 | 140 | 88 | 1.7 | 7.0 | 0.00 | 0.00 | 0.00 | 1013.3 | |
| 20260906165331 | 140 | 71 | 0.0 | 0.9 | 0.00 | 0.00 | 0.00 | 1013.1 | |
| 20260906164826 | 140 | 8 | 4.3 | 7.0 | 0.00 | 0.00 | 0.00 | 1013.5 | |
| 20260906164325 | 140 | 32 | 0.0 | 0.0 | 0.00 | 0.00 | 0.00 | 1013.7 | |
| 20260906163821 | 140 | 86 | 0.0 | 0.0 | 0.00 | 0.00 | 0.00 | 1013.8 | |
| 20260906163317 | 140 | 65 | 3.5 | 5.2 | 0.00 | 0.00 | 0.00 | 1013.4 | |
| 20260906162815 | 140 | 90 | 6.1 | 8.7 | 0.00 | 0.00 | 0.00 | 1013.4 | |
| 20260906162314 | 140 | 80 | 0.0 | 0.0 | 0.00 | 0.00 | 0.00 | 1013.6 | |
| 20260906161809 | 140 | 40 | 0.0 | 0.0 | 0.00 | 0.00 | 0.00 | 1013.6 | |
| 20260906161308 | 140 | 71 | 0.0 | 0.0 | 0.00 | 0.00 | 0.00 | 1013.7 | |
| 20260906160807 | 140 | 46 | 0.0 | 0.0 | 0.00 | 0.00 | 0.00 | 1013.4 | |
| 20260906160301 | 140 | 103 | 7.8 | 7.8 | 0.00 | 0.00 | 0.00 | 1013.3 | |
| 20260906155759 | 140 | 72 | 0.0 | 0.0 | 0.00 | 0.00 | 0.00 | 1013.6 | |
| 20260906155248 | 140 | 85 | 0.0 | 0.0 | 0.00 | 0.00 | 0.00 | 1013.5 | |
| 20260906154744 | 140 | 81 | 0.0 | 0.0 | 0.00 | 0.00 | 0.00 | 1013.6 | |
| 20260906154238 | 140 | 108 | 0.0 | 0.0 | 0.00 | 0.00 | 0.00 | 1013.5 | |
| 20260906153737 | 140 | 85 | 0.0 | 0.0 | 0.00 | 0.00 | 0.00 | 1013.5 | |
| 20260906153231 | 140 | 150 | 0.0 | 0.0 | 0.00 | 0.00 | 0.00 | 1013.7 | |
| 20260906152727 | 140 | 217 | 0.0 | 0.0 | 0.00 | 0.00 | 0.00 | 1013.6 | |
| 20260906152221 | 140 | 169 | 0.0 | 0.0 | 0.00 | 0.00 | 0.00 | 1013.4 | |
| 20260906151721 | 140 | 168 | 0.0 | 0.0 | 0.00 | 0.00 | 0.00 | 1013.6 | |
| 20260906151217 | 140 | 164 | 0.0 | 0.0 | 0.00 | 0.00 | 0.00 | 1013.6 | |
| 20260906150712 | 140 | 277 | 0.0 | 0.0 | 0.00 | 0.00 | 0.00 | 1013.5 | |
| 20260906150207 | 140 | 139 | 0.0 | 0.0 | 0.00 | 0.00 | 0.00 | 1013.8 | |
| 20260906145706 | 140 | 201 | 0.0 | 0.0 | 0.00 | 0.00 | 0.00 | 1013.8 | |
| 20260906145205 | 140 | 146 | 0.0 | 0.0 | 0.00 | 0.00 | 0.00 | 1013.7 | |
| 20260906144700 | 140 | 86 | 0.0 | 0.0 | 0.00 | 0.00 | 0.00 | 1013.5 | |
| 20260906144155 | 140 | 65 | 0.0 | 0.0 | 0.00 | 0.00 | 0.00 | 1013.5 | |
| 20260906143655 | 140 | 155 | 0.0 | 0.0 | 0.00 | 0.00 | 0.00 | 1013.6 | |
| 20260906143152 | 140 | 123 | 0.0 | 0.0 | 0.00 | 0.00 | 0.00 | 1013.3 | |
| 20260906142652 | 140 | 77 | 0.0 | 0.0 | 0.00 | 0.00 | 0.00 | 1013.3 | |
| 20260906142147 | 140 | 107 | 0.0 | 0.0 | 0.00 | 0.00 | 0.00 | 1013.8 | |
| 20260906141646 | 140 | 67 | 0.0 | 0.0 | 0.00 | 0.00 | 0.00 | 1013.6 | |
| 20260906141141 | 140 | 87 | 0.0 | 0.0 | 0.00 | 0.00 | 0.00 | 1013.8 | |
| 20260906140640 | 140 | 125 | 0.0 | 0.0 | 0.00 | 0.00 | 0.00 | 1013.6 | |
| 20260906140135 | 140 | 107 | 0.0 | 0.0 | 0.00 | 0.00 | 0.00 | 1013.7 | |
| 20260906135632 | 140 | 119 | 0.0 | 0.0 | 0.00 | 0.00 | 0.00 | 1013.8 | |
| 20260906135128 | 140 | 114 | 0.0 | 0.0 | 0.00 | 0.00 | 0.00 | 1013.4 | |
| 20260906134624 | 140 | 99 | 0.0 | 0.0 | 0.00 | 0.00 | 0.00 | 1013.6 | |
| 20260906134119 | 140 | 92 | 0.0 | 0.0 | 0.00 | 0.00 | 0.00 | 1013.4 | |
| 20260906133615 | 140 | 106 | 0.0 | 0.0 | 0.00 | 0.00 | 0.00 | 1013.7 | |
| 20260906133115 | 140 | 77 | 0.0 | 0.0 | 0.00 | 0.00 | 0.00 | 1013.6 | |
| 20260906132609 | 140 | 82 | 0.0 | 0.0 | 0.00 | 0.00 | 0.00 | 1013.5 | |
| 20260906132105 | 140 | 58 | 0.0 | 0.0 | 0.00 | 0.00 | 0.00 | 1013.5 | |
| 20260906131601 | 140 | 73 | 0.0 | 0.0 | 0.00 | 0.00 | 0.00 | 1013.3 | |
| 20260906131056 | 140 | 65 | 0.0 | 0.0 | 0.00 | 0.00 | 0.00 | 1013.5 | |
| 20260906130550 | 140 | 34 | 0.0 | 0.0 | 0.00 | 0.00 | 0.00 | 1013.4 | |
| 20260906130045 | 140 | 60 | 0.0 | 0.0 | 0.00 | 0.00 | 0.00 | 1013.3 | |
| 20260906125542 | 140 | 52 | 0.0 | 0.0 | 0.00 | 0.00 | 0.00 | 1013.4 | |
| 20260906125037 | 140 | 69 | 0.0 | 0.0 | 0.00 | 0.00 | 0.00 | 1013.3 | |
| 20260906124532 | 140 | 78 | 0.0 | 0.0 | 0.00 | 0.00 | 0.00 | 1013.3 | |
| 20260906124027 | 140 | 69 | 0.0 | 0.0 | 0.00 | 0.00 | 0.00 | 1013.1 | |
| 20260906123526 | 140 | 63 | 0.0 | 0.0 | 0.00 | 0.00 | 0.00 | 1013.0 | |
| 20260906123021 | 140 | 65 | 0.0 | 0.0 | 0.00 | 0.00 | 0.00 | 1013.2 | |
| 20260906122515 | 140 | 54 | 0.0 | 0.0 | 0.00 | 0.00 | 0.00 | 1013.2 | |
| 20260906122012 | 140 | 56 | 0.0 | 0.0 | 0.00 | 0.00 | 0.00 | 1013.1 | |
| 20260906121508 | 140 | 45 | 0.0 | 0.0 | 0.00 | 0.00 | 0.00 | 1012.9 | |
| 20260906121004 | 140 | 18 | 0.0 | 0.0 | 0.00 | 0.00 | 0.00 | 1013.0 | |
| 20260906120504 | 140 | 313 | 0.0 | 0.0 | 0.00 | 0.00 | 0.00 | 1013.0 | |
| 20260906120000 | 140 | 313 | 0.0 | 0.0 | 0.00 | 0.00 | 0.00 | 1012.8 | |
| 20260906115456 | 140 | 311 | 0.0 | 0.0 | 0.00 | 0.00 | 0.00 | 1012.7 | |
| 20260906114955 | 140 | 310 | 0.0 | 0.0 | 0.00 | 0.00 | 0.00 | 1012.8 | |
| 20260906114451 | 140 | 310 | 0.0 | 0.0 | 0.00 | 0.00 | 0.00 | 1012.4 | |
| 20260906113947 | 140 | 309 | 0.0 | 0.0 | 0.00 | 0.00 | 0.00 | 1012.6 | |
| 20260906113445 | 140 | 309 | 0.0 | 0.0 | 0.00 | 0.00 | 0.00 | 1012.4 | |
| 20260906112941 | 140 | 305 | 0.0 | 0.0 | 0.00 | 0.00 | 0.00 | 1012.5 | |
| 20260906112436 | 140 | 304 | 0.0 | 0.0 | 0.00 | 0.00 | 0.00 | 1012.5 | |
| 20260906111932 | 140 | 305 | 0.0 | 0.0 | 0.00 | 0.00 | 0.00 | 1012.4 | |
| 20260906111431 | 140 | 243 | 0.0 | 0.0 | 0.00 | 0.00 | 0.00 | 1012.3 | |
| 20260906110926 | 140 | 217 | 0.0 | 0.0 | 0.00 | 0.00 | 0.00 | 1012.4 | |
| 20260906110422 | 140 | 211 | 0.0 | 0.0 | 0.00 | 0.00 | 0.00 | 1012.2 | |
| 20260906105920 | 140 | 204 | 0.0 | 0.0 | 0.00 | 0.00 | 0.00 | 1012.4 | |
| 20260906105417 | 140 | 206 | 0.0 | 0.0 | 0.00 | 0.00 | 0.00 | 1012.4 | |
| 20260906104912 | 140 | 213 | 0.0 | 0.0 | 0.00 | 0.00 | 0.00 | 1012.5 | |
| 20260906104411 | 140 | 212 | 0.0 | 0.0 | 0.00 | 0.00 | 0.00 | 1012.3 | |
| 20260906103910 | 140 | 225 | 0.0 | 0.0 | 0.00 | 0.00 | 0.00 | 1012.1 | |
| 20260906103408 | 140 | 258 | 0.0 | 0.0 | 0.00 | 0.00 | 0.00 | 1012.2 | |
| 20260906102904 | 140 | 258 | 0.0 | 0.0 | 0.00 | 0.00 | 0.00 | 1012.1 | |
| 20260906102403 | 140 | 259 | 0.0 | 0.0 | 0.00 | 0.00 | 0.00 | 1012.2 | |
| 20260906101858 | 140 | 259 | 0.0 | 0.0 | 0.00 | 0.00 | 0.00 | 1012.2 | |
| 20260906101353 | 140 | 258 | 0.0 | 0.0 | 0.00 | 0.00 | 0.00 | 1012.4 | |
| 20260906100849 | 140 | 259 | 0.0 | 0.0 | 0.00 | 0.00 | 0.00 | 1012.3 | |
| 20260906100348 | 140 | 263 | 0.0 | 0.0 | 0.00 | 0.00 | 0.00 | 1012.1 | |
| 20260906095843 | 140 | 267 | 0.0 | 0.0 | 0.00 | 0.00 | 0.00 | 1012.3 | |
| 20260906095338 | 140 | 303 | 0.0 | 0.0 | 0.00 | 0.00 | 0.00 | 1011.9 | |
| 20260906094838 | 140 | 46 | 0.0 | 0.0 | 0.00 | 0.00 | 0.00 | 1012.1 | |
| 20260906094333 | 140 | 72 | 0.0 | 0.0 | 0.00 | 0.00 | 0.00 | 1012.1 | |
| 20260906093830 | 140 | 130 | 0.0 | 0.0 | 0.00 | 0.00 | 0.00 | 1012.2 | |
| 20260906093325 | 140 | 193 | 0.0 | 0.0 | 0.00 | 0.00 | 0.00 | 1011.7 | |
| 20260906092820 | 140 | 203 | 0.0 | 0.0 | 0.00 | 0.00 | 0.00 | 1011.8 | |
| 20260906092320 | 140 | 193 | 0.0 | 0.0 | 0.00 | 0.00 | 0.00 | 1011.9 | |
| 20260906091815 | 140 | 193 | 0.0 | 0.0 | 0.00 | 0.00 | 0.00 | 1011.6 | |
| 20260906091312 | 140 | 192 | 0.0 | 0.0 | 0.00 | 0.00 | 0.00 | 1011.6 | |
| 20260906090808 | 140 | 192 | 0.0 | 0.0 | 0.00 | 0.00 | 0.00 | 1011.7 | |
| 20260906090307 | 140 | 192 | 0.0 | 0.0 | 0.00 | 0.00 | 0.00 | 1011.8 | |
| 20260906085807 | 140 | 192 | 0.0 | 0.0 | 0.00 | 0.00 | 0.00 | 1011.8 | |
| 20260906085307 | 140 | 193 | 0.0 | 0.0 | 0.00 | 0.00 | 0.00 | 1011.6 | |
| 20260906084800 | 140 | 194 | 0.0 | 0.0 | 0.00 | 0.00 | 0.00 | 1011.7 | |
| 20260906084254 | 140 | 235 | 0.0 | 0.0 | 0.00 | 0.00 | 0.00 | 1011.6 | |
| 20260906083749 | 140 | 182 | 0.0 | 0.0 | 0.00 | 0.00 | 0.00 | 1011.5 | |
| 20260906083245 | 140 | 177 | 0.0 | 0.0 | 0.00 | 0.00 | 0.00 | 1011.5 | |
| 20260906082739 | 140 | 148 | 0.0 | 0.0 | 0.00 | 0.00 | 0.00 | 1011.6 | |
| 20260906082234 | 140 | 152 | 0.0 | 0.0 | 0.00 | 0.00 | 0.00 | 1011.7 | |
| 20260906081731 | 140 | 176 | 0.0 | 0.0 | 0.00 | 0.00 | 0.00 | 1011.6 | |
| 20260906081225 | 140 | 135 | 0.0 | 0.0 | 0.00 | 0.00 | 0.00 | 1011.9 | |
| 20260906080722 | 140 | 128 | 0.0 | 0.0 | 0.00 | 0.00 | 0.00 | 1011.6 | |
| 20260906080218 | 140 | 109 | 0.0 | 0.0 | 0.00 | 0.00 | 0.00 | 1012.0 | |
| 20260906075718 | 140 | 213 | 0.0 | 0.0 | 0.00 | 0.00 | 0.00 | 1012.0 | |
| 20260906075212 | 140 | 212 | 0.0 | 0.0 | 0.00 | 0.00 | 0.00 | 1011.9 | |
| 20260906074708 | 140 | 210 | 0.0 | 0.0 | 0.00 | 0.00 | 0.00 | 1012.0 | |
| 20260906074207 | 140 | 212 | 0.0 | 0.0 | 0.00 | 0.00 | 0.00 | 1012.1 | |
| 20260906073702 | 140 | 220 | 0.0 | 0.0 | 0.00 | 0.00 | 0.00 | 1012.0 | |
| 20260906073157 | 140 | 157 | 0.0 | 0.0 | 0.00 | 0.00 | 0.00 | 1011.9 | |
| 20260906072652 | 140 | 130 | 0.0 | 0.0 | 0.00 | 0.00 | 0.00 | 1011.9 | |
| 20260906072148 | 140 | 154 | 0.0 | 0.0 | 0.00 | 0.00 | 0.00 | 1011.8 | |
| 20260906071644 | 140 | 182 | 0.0 | 0.0 | 0.00 | 0.00 | 0.00 | 1011.8 | |
| 20260906071143 | 140 | 154 | 0.0 | 0.0 | 0.00 | 0.00 | 0.00 | 1011.7 | |
| 20260906070640 | 140 | 135 | 0.0 | 0.0 | 0.00 | 0.00 | 0.00 | 1011.6 | |
| 20260906070136 | 140 | 147 | 0.0 | 0.0 | 0.00 | 0.00 | 0.00 | 1011.8 | |
| 20260906065635 | 140 | 146 | 0.0 | 0.0 | 0.00 | 0.00 | 0.00 | 1011.8 | |
| 20260906065131 | 140 | 172 | 0.0 | 0.0 | 0.00 | 0.00 | 0.00 | 1011.9 | |
| 20260906064626 | 140 | 160 | 0.0 | 0.0 | 0.00 | 0.00 | 0.00 | 1011.9 | |
| 20260906064121 | 140 | 124 | 0.0 | 0.0 | 0.00 | 0.00 | 0.00 | 1012.0 | |
| 20260906063616 | 140 | 133 | 0.0 | 0.0 | 0.00 | 0.00 | 0.00 | 1012.2 | |
| 20260906063112 | 140 | 126 | 0.0 | 0.0 | 0.00 | 0.00 | 0.00 | 1012.1 | |
| 20260906062608 | 140 | 147 | 0.0 | 0.0 | 0.00 | 0.00 | 0.00 | 1012.3 | |
| 20260906062106 | 140 | 133 | 0.0 | 0.0 | 0.00 | 0.00 | 0.00 | 1012.3 | |
| 20260906061603 | 140 | 137 | 0.0 | 0.0 | 0.00 | 0.00 | 0.00 | 1012.0 | |
| 20260906061102 | 140 | 137 | 0.0 | 0.0 | 0.00 | 0.00 | 0.00 | 1012.2 | |
| 20260906060559 | 140 | 132 | 0.0 | 0.0 | 0.00 | 0.00 | 0.00 | 1012.5 | |
| 20260906060056 | 140 | 137 | 0.0 | 0.0 | 0.00 | 0.00 | 0.00 | 1012.2 | |
| 20260906055551 | 140 | 139 | 0.0 | 0.0 | 0.00 | 0.00 | 0.00 | 1012.6 | |
| 20260906055046 | 140 | 133 | 0.0 | 0.0 | 0.00 | 0.00 | 0.00 | 1012.5 | |
| 20260906054541 | 140 | 120 | 0.0 | 0.0 | 0.00 | 0.00 | 0.00 | 1012.4 | |
| 20260906054037 | 140 | 100 | 0.0 | 0.0 | 0.00 | 0.00 | 0.00 | 1012.2 | |
| 20260906053533 | 140 | 104 | 0.0 | 0.0 | 0.00 | 0.00 | 0.00 | 1012.2 | |
| 20260906053028 | 140 | 104 | 0.0 | 0.0 | 0.00 | 0.00 | 0.00 | 1012.1 | |
| 20260906052524 | 140 | 144 | 0.0 | 0.0 | 0.00 | 0.00 | 0.00 | 1012.3 | |
| 20260906052021 | 140 | 143 | 0.0 | 0.0 | 0.00 | 0.00 | 0.00 | 1012.3 | |
| 20260906051516 | 140 | 130 | 0.0 | 0.0 | 0.00 | 0.00 | 0.00 | 1012.3 | |
| 20260906051011 | 140 | 97 | 0.0 | 0.0 | 0.00 | 0.00 | 0.00 | 1012.2 | |
| 20260906050512 | 140 | 122 | 0.0 | 0.0 | 0.00 | 0.00 | 0.00 | 1012.1 | |
| 20260906050007 | 140 | 150 | 0.0 | 0.0 | 0.00 | 0.00 | 0.00 | 1012.1 | |
| 20260906045505 | 140 | 144 | 0.0 | 0.0 | 0.00 | 0.00 | 0.00 | 1012.2 | |
| 20260906045000 | 140 | 184 | 0.0 | 0.0 | 0.00 | 0.00 | 0.00 | 1012.1 | |
| 20260906044450 | 140 | 127 | 0.0 | 0.0 | 0.00 | 0.00 | 0.00 | 1012.3 | |
| 20260906043945 | 140 | 151 | 0.0 | 0.0 | 0.00 | 0.00 | 0.00 | 1012.0 | |
| 20260906043441 | 140 | 182 | 0.0 | 0.0 | 0.00 | 0.00 | 0.00 | 1012.2 | |
| 20260906042937 | 140 | 152 | 0.0 | 0.0 | 0.00 | 0.00 | 0.00 | 1011.9 | |
| 20260906042436 | 140 | 134 | 0.0 | 0.0 | 0.00 | 0.00 | 0.00 | 1011.9 | |
| 20260906041931 | 140 | 123 | 0.0 | 0.0 | 0.00 | 0.00 | 0.00 | 1011.5 | |
| 20260906041427 | 140 | 149 | 0.0 | 0.0 | 0.00 | 0.00 | 0.00 | 1011.9 | |
| 20260906040927 | 140 | 130 | 0.0 | 0.0 | 0.00 | 0.00 | 0.00 | 1011.7 | |
| 20260906040422 | 140 | 84 | 0.0 | 0.0 | 0.00 | 0.00 | 0.00 | 1012.0 | |
| 20260906035917 | 140 | 113 | 0.0 | 0.0 | 0.00 | 0.00 | 0.00 | 1012.0 | |
| 20260906035413 | 140 | 154 | 0.0 | 0.0 | 0.00 | 0.00 | 0.00 | 1012.0 | |
| 20260906034908 | 140 | 143 | 0.0 | 0.0 | 0.00 | 0.00 | 0.00 | 1011.6 | |
| 20260906034408 | 140 | 134 | 0.0 | 0.0 | 0.00 | 0.00 | 0.00 | 1011.8 | |
| 20260906033903 | 140 | 106 | 0.0 | 0.0 | 0.00 | 0.00 | 0.00 | 1011.7 | |
| 20260906033403 | 140 | 109 | 0.0 | 0.0 | 0.00 | 0.00 | 0.00 | 1012.0 | |
| 20260906032859 | 140 | 110 | 0.0 | 0.0 | 0.00 | 0.00 | 0.00 | 1011.6 | |
| 20260906032355 | 140 | 114 | 0.0 | 0.0 | 0.00 | 0.00 | 0.00 | 1011.8 | |
| 20260906031850 | 140 | 106 | 0.0 | 0.0 | 0.00 | 0.00 | 0.00 | 1011.7 | |
| 20260906031340 | 140 | 114 | 0.0 | 0.0 | 0.00 | 0.00 | 0.00 | 1011.5 | |
| 20260906030839 | 140 | 116 | 0.0 | 0.0 | 0.00 | 0.00 | 0.00 | 1011.4 | |
| 20260906030335 | 140 | 108 | 0.0 | 0.0 | 0.00 | 0.00 | 0.00 | 1011.5 | |
| 20260906025834 | 140 | 135 | 0.0 | 0.0 | 0.00 | 0.00 | 0.00 | 1011.7 | |
| 20260906025329 | 140 | 87 | 0.0 | 0.0 | 0.00 | 0.00 | 0.00 | 1011.5 | |
| 20260906024828 | 140 | 122 | 0.0 | 0.0 | 0.00 | 0.00 | 0.00 | 1011.4 | |
| 20260906024327 | 140 | 114 | 0.0 | 0.0 | 0.00 | 0.00 | 0.00 | 1011.4 | |
| 20260906023823 | 140 | 118 | 0.0 | 0.0 | 0.00 | 0.00 | 0.00 | 1011.2 | |
| 20260906023318 | 140 | 151 | 0.0 | 0.0 | 0.00 | 0.00 | 0.00 | 1011.0 | |
| 20260906022814 | 140 | 129 | 0.0 | 0.0 | 0.00 | 0.00 | 0.00 | 1011.1 | |
| 20260906022309 | 140 | 149 | 0.0 | 0.0 | 0.00 | 0.00 | 0.00 | 1011.0 | |
| 20260906021804 | 140 | 124 | 0.0 | 0.0 | 0.00 | 0.00 | 0.00 | 1011.2 | |
| 20260906021303 | 140 | 114 | 0.0 | 0.0 | 0.00 | 0.00 | 0.00 | 1011.0 | |
| 20260906020758 | 140 | 132 | 1.7 | 7.0 | 0.00 | 0.00 | 0.00 | 1010.7 | |
| 20260906020258 | 140 | 132 | 2.6 | 4.3 | 0.00 | 0.00 | 0.00 | 1010.7 | |
| 20260906015752 | 140 | 101 | 0.9 | 1.7 | 0.00 | 0.00 | 0.00 | 1010.5 | |
| 20260906015251 | 140 | 113 | 0.0 | 0.0 | 0.00 | 0.00 | 0.00 | 1010.4 | |
| 20260906014746 | 140 | 80 | 0.0 | 0.0 | 0.00 | 0.00 | 0.00 | 1010.2 | |
| 20260906014241 | 140 | 72 | 0.0 | 0.0 | 0.00 | 0.00 | 0.00 | 1010.1 | |
| 20260906013737 | 140 | 84 | 0.0 | 0.0 | 0.00 | 0.00 | 0.00 | 1010.2 | |
| 20260906013237 | 140 | 84 | 0.0 | 0.0 | 0.00 | 0.00 | 0.00 | 1010.1 | |
| 20260906012732 | 140 | 86 | 0.0 | 0.0 | 0.00 | 0.00 | 0.00 | 1010.0 | |
| 20260906012228 | 140 | 79 | 0.0 | 0.0 | 0.00 | 0.00 | 0.00 | 1009.9 | |
| 20260906011723 | 140 | 98 | 0.0 | 0.0 | 0.00 | 0.00 | 0.00 | 1009.8 | |
| 20260906011223 | 140 | 95 | 0.0 | 0.0 | 0.00 | 0.00 | 0.00 | 1009.7 | |
| 20260906010718 | 140 | 88 | 0.0 | 0.0 | 0.00 | 0.00 | 0.00 | 1009.9 | |
| 20260906010214 | 140 | 95 | 0.0 | 0.0 | 0.00 | 0.00 | 0.00 | 1009.8 | |
| 20260906005709 | 140 | 83 | 0.0 | 0.0 | 0.00 | 0.00 | 0.00 | 1010.0 | |
| 20260906005209 | 140 | 84 | 0.0 | 0.0 | 0.00 | 0.00 | 0.00 | 1009.8 | |
| 20260906004707 | 140 | 68 | 0.0 | 0.0 | 0.00 | 0.00 | 0.00 | 1009.7 | |
| 20260906004202 | 140 | 92 | 0.0 | 0.0 | 0.00 | 0.00 | 0.00 | 1009.7 | |
| 20260906003657 | 140 | 79 | 0.0 | 0.0 | 0.00 | 0.00 | 0.00 | 1009.9 | |
| 20260906003154 | 140 | 89 | 0.0 | 0.0 | 0.00 | 0.00 | 0.00 | 1009.5 | |
| 20260906002654 | 140 | 109 | 0.0 | 0.0 | 0.00 | 0.00 | 0.00 | 1009.4 | |
| 20260906002148 | 140 | 90 | 0.0 | 0.9 | 0.00 | 0.00 | 0.00 | 1009.6 | |
| 20260906001644 | 140 | 85 | 0.0 | 0.0 | 0.00 | 0.00 | 0.00 | 1009.7 | |
| 20260906001144 | 140 | 87 | 0.0 | 0.0 | 0.00 | 0.00 | 0.00 | 1009.4 | |
| 20260906000639 | 140 | 106 | 2.6 | 5.2 | 0.00 | 0.00 | 0.00 | 1009.5 | |
| 20260906000135 | 140 | 79 | 0.0 | 2.6 | 0.00 | 0.00 | 0.00 | 1009.5 | |
| 20260905235633 | 140 | 110 | 0.0 | 0.0 | 0.00 | 0.00 | 0.00 | 1009.3 | |
| 20260905235129 | 140 | 74 | 0.0 | 0.9 | 0.00 | 0.00 | 0.00 | 1009.5 | |
| 20260905234624 | 140 | 80 | 0.9 | 2.6 | 0.00 | 0.00 | 0.00 | 1009.5 | |
| 20260905234119 | 140 | 46 | 0.9 | 4.3 | 0.00 | 0.00 | 0.00 | 1009.6 | |
| 20260905233614 | 140 | 92 | 4.3 | 6.1 | 0.00 | 0.00 | 0.00 | 1009.2 | |
| 20260905233108 | 140 | 47 | 0.0 | 0.0 | 0.00 | 0.00 | 0.00 | 1009.2 | |
| 20260905232604 | 140 | 72 | 0.0 | 0.0 | 0.00 | 0.00 | 0.00 | 1009.3 | |
| 20260905232100 | 140 | 116 | 0.0 | 0.0 | 0.00 | 0.00 | 0.00 | 1009.4 | |
| 20260905231554 | 140 | 91 | 3.5 | 6.1 | 0.00 | 0.00 | 0.00 | 1009.1 | |
| 20260905231051 | 140 | 77 | 6.1 | 7.8 | 0.00 | 0.00 | 0.00 | 1009.8 | |
| 20260905230551 | 140 | 86 | 6.1 | 7.0 | 0.00 | 0.00 | 0.00 | 1009.3 | |
| 20260905230049 | 140 | 63 | 0.0 | 0.0 | 0.00 | 0.00 | 0.00 | 1009.4 | |
| 20260905225549 | 140 | 49 | 0.0 | 0.0 | 0.00 | 0.00 | 0.00 | 1009.2 | |
| 20260905225044 | 140 | 73 | 0.0 | 0.0 | 0.00 | 0.00 | 0.00 | 1009.1 |